GW6799 Weather Reports


time (UTC)temp
C
wind
direction
speed
KPH
gust
KPH
rain 1hr
cm
rain 24hr
cm
rain mn
cm
humidity
%
barometer
mb
20260906225012 36 142 8.0 19.3 0.00 0.00 0.00 44 1012.0
20260906224532 36 157 8.0 19.3 0.00 0.00 0.00 44 1012.1
20260906224003 36 155 6.4 16.1 0.00 0.00 0.00 44 1012.0
20260906223514 36 131 9.7 16.1 0.00 0.00 0.00 44 1012.1
20260906223014 36 140 6.4 17.7 0.00 0.00 0.00 45 1012.1
20260906222515 36 144 8.0 17.7 0.00 0.00 0.00 45 1012.2
20260906222014 36 181 6.4 17.7 0.00 0.00 0.00 45 1012.0
20260906221515 36 132 9.7 22.5 0.00 0.00 0.00 45 1012.1
20260906221015 36 159 9.7 22.5 0.00 0.00 0.00 45 1012.1
20260906220515 36 181 11.3 17.7 0.00 0.00 0.00 45 1012.1
20260906220018 36 188 6.4 12.9 0.00 0.00 0.00 45 1012.2
20260906215506 36 153 6.4 14.5 0.00 0.00 0.00 45 1012.2
20260906215014 36 64 4.8 16.1 0.00 0.00 0.00 45 1012.2
20260906214513 36 144 9.7 16.1 0.00 0.00 0.00 45 1012.2
20260906214019 36 162 6.4 12.9 0.00 0.00 0.00 45 1012.1
20260906213516 36 171 1.6 11.3 0.00 0.00 0.00 45 1012.1
20260906213014 36 140 3.2 11.3 0.00 0.00 0.00 45 1012.2
20260906212502 36 265 3.2 11.3 0.00 0.00 0.00 45 1012.3
20260906212012 36 146 1.6 16.1 0.00 0.00 0.00 44 1012.3
20260906211530 36 166 9.7 20.9 0.00 0.00 0.00 44 1012.5
20260906211006 36 207 8.0 20.9 0.00 0.00 0.00 46 1012.5
20260906210511 36 159 9.7 19.3 0.00 0.00 0.00 45 1012.7
20260906210015 36 148 6.4 16.1 0.00 0.00 0.00 45 1012.8
20260906205506 36 138 1.6 14.5 0.00 0.00 0.00 45 1012.9
20260906205009 36 157 6.4 17.7 0.00 0.00 0.00 45 1012.9
20260906204513 36 219 3.2 17.7 0.00 0.00 0.00 44 1013.0
20260906204002 36 165 8.0 16.1 0.00 0.00 0.00 45 1013.1
20260906203514 36 173 8.0 17.7 0.00 0.00 0.00 45 1013.2
20260906203028 36 147 4.8 17.7 0.00 0.00 0.00 43 1013.2
20260906202517 36 179 11.3 16.1 0.00 0.00 0.00 44 1013.3
20260906202013 36 223 6.4 16.1 0.00 0.00 0.00 45 1013.3
20260906201517 36 180 4.8 17.7 0.00 0.00 0.00 44 1013.3
20260906201019 36 348 6.4 17.7 0.00 0.00 0.00 44 1013.4
20260906200517 35 144 6.4 11.3 0.00 0.00 0.00 45 1013.5
20260906200030 35 167 3.2 16.1 0.00 0.00 0.00 46 1013.4
20260906195513 35 77 4.8 16.1 0.00 0.00 0.00 45 1013.6
20260906195014 35 113 4.8 16.1 0.00 0.00 0.00 47 1013.7
20260906194534 35 65 4.8 19.3 0.00 0.00 0.00 45 1013.6
20260906194020 35 179 12.9 20.9 0.00 0.00 0.00 45 1013.6
20260906193514 36 163 8.0 20.9 0.00 0.00 0.00 45 1013.8
20260906193034 36 157 11.3 19.3 0.00 0.00 0.00 45 1013.7
20260906192515 35 128 6.4 19.3 0.00 0.00 0.00 47 1013.8
20260906192011 35 71 6.4 19.3 0.00 0.00 0.00 47 1013.8
20260906191518 35 156 9.7 19.3 0.00 0.00 0.00 48 1013.8
20260906191020 35 144 8.0 14.5 0.00 0.00 0.00 47 1014.0
20260906190518 35 217 4.8 16.1 0.00 0.00 0.00 48 1014.0
20260906190035 35 180 3.2 19.3 0.00 0.00 0.00 1014.1
20260906185517 35 71 8.0 19.3 0.00 0.00 0.00 47 1014.1
20260906185018 35 352 3.2 16.1 0.00 0.00 0.00 47 1014.1
20260906184516 35 163 3.2 16.1 0.00 0.00 0.00 47 1014.2
20260906184016 35 76 6.4 19.3 0.00 0.00 0.00 47 1014.2
20260906183517 35 156 1.6 19.3 0.00 0.00 0.00 48 1014.3
20260906183040 35 169 4.8 14.5 0.00 0.00 0.00 1014.4
20260906182518 35 195 4.8 14.5 0.00 0.00 0.00 48 1014.5
20260906182017 35 66 3.2 16.1 0.00 0.00 0.00 48 1014.6
20260906181541 35 222 8.0 16.1 0.00 0.00 0.00 49 1014.8
20260906181018 35 179 6.4 20.9 0.00 0.00 0.00 49 1014.9
20260906180519 35 99 8.0 19.3 0.00 0.00 0.00 48 1014.9
20260906180026 35 180 4.8 17.7 0.00 0.00 0.00 49 1014.9
20260906175520 34 109 4.8 17.7 0.00 0.00 0.00 49 1015.1
20260906175019 35 175 9.7 22.5 0.00 0.00 0.00 50 1015.1
20260906174532 34 198 6.4 22.5 0.00 0.00 0.00 50 1015.1
20260906174016 34 165 6.4 17.7 0.00 0.00 0.00 51 1015.2
20260906173511 34 187 9.7 17.7 0.00 0.00 0.00 50 1015.2
20260906173033 35 61 6.4 20.9 0.00 0.00 0.00 51 1015.2
20260906172513 35 213 9.7 17.7 0.00 0.00 0.00 52 1015.3
20260906172018 34 63 1.6 19.3 0.00 0.00 0.00 52 1015.3
20260906171518 34 162 9.7 19.3 0.00 0.00 0.00 52 1015.5
20260906171018 33 135 6.4 17.7 0.00 0.00 0.00 52 1015.5
20260906170512 33 127 9.7 16.1 0.00 0.00 0.00 52 1015.4
20260906170016 33 184 3.2 11.3 0.00 0.00 0.00 53 1015.4
20260906165519 34 177 4.8 11.3 0.00 0.00 0.00 53 1015.6
20260906165016 33 95 3.2 9.7 0.00 0.00 0.00 54 1015.6
20260906164534 33 65 1.6 11.3 0.00 0.00 0.00 55 1015.7
20260906164018 33 174 1.6 11.3 0.00 0.00 0.00 54 1015.7
20260906163517 33 160 4.8 8.0 0.00 0.00 0.00 54 1015.6
20260906163017 33 69 3.2 14.5 0.00 0.00 0.00 55 1015.7
20260906162521 33 89 8.0 14.5 0.00 0.00 0.00 55 1015.7
20260906162020 33 167 4.8 12.9 0.00 0.00 0.00 55 1015.6
20260906161547 33 70 3.2 14.5 0.00 0.00 0.00 54 1015.5
20260906161016 33 169 4.8 9.7 0.00 0.00 0.00 55 1015.5
20260906160512 32 208 1.6 12.9 0.00 0.00 0.00 57 1015.5
20260906160036 32 151 4.8 12.9 0.00 0.00 0.00 56 1015.4
20260906155519 32 165 3.2 14.5 0.00 0.00 0.00 56 1015.5
20260906155015 32 60 6.4 14.5 0.00 0.00 0.00 55 1015.6
20260906154519 32 103 1.6 11.3 0.00 0.00 0.00 59 1015.5
20260906154018 32 69 1.6 12.9 0.00 0.00 0.00 59 1015.3
20260906153515 32 98 4.8 12.9 0.00 0.00 0.00 59 1015.4
20260906153023 32 86 3.2 8.0 0.00 0.00 0.00 58 1015.4
20260906152519 32 153 3.2 11.3 0.00 0.00 0.00 59 1015.4
20260906152012 32 80 4.8 8.0 0.00 0.00 0.00 59 1015.4
20260906151522 32 78 3.2 8.0 0.00 0.00 0.00 60 1015.4
20260906151019 32 65 1.6 6.4 0.00 0.00 0.00 61 1015.4
20260906150514 32 118 0.0 6.4 0.00 0.00 0.00 62 1015.3
20260906150037 31 82 0.0 6.4 0.00 0.00 0.00 61 1015.4
20260906145515 31 75 1.6 3.2 0.00 0.00 0.00 1015.3
20260906145015 31 63 0.0 3.2 0.00 0.00 0.00 66 1015.4
20260906144524 31 63 0.0 3.2 0.00 0.00 0.00 68 1015.4
20260906144016 30 148 0.0 3.2 0.00 0.00 0.00 70 1015.3
20260906143516 30 59 0.0 3.2 0.00 0.00 0.00 72 1015.2
20260906143034 29 59 0.0 4.8 0.00 0.00 0.00 73 1015.3
20260906142516 28 59 1.6 4.8 0.00 0.00 0.00 74 1015.4
20260906142016 28 52 1.6 4.8 0.00 0.00 0.00 77 1015.5
20260906141533 28 67 0.0 4.8 0.00 0.00 0.00 79 1015.5
20260906141016 27 67 1.6 4.8 0.00 0.00 0.00 80 1015.5
20260906140515 27 67 1.6 4.8 0.00 0.00 0.00 81 1015.5
20260906140035 27 67 1.6 4.8 0.00 0.00 0.00 81 1015.4
20260906135519 27 67 1.6 3.2 0.00 0.00 0.00 82 1015.5
20260906135012 27 67 0.0 3.2 0.00 0.00 0.00 83 1015.6
20260906134531 26 90 0.0 0.0 0.00 0.00 0.00 84 1015.6
20260906134016 26 93 0.0 0.0 0.00 0.00 0.00 85 1015.6
20260906133518 26 98 0.0 0.0 0.00 0.00 0.00 86 1015.5
20260906133041 26 98 0.0 0.0 0.00 0.00 0.00 87 1015.5
20260906132521 25 98 0.0 0.0 0.00 0.00 0.00 88 1015.5
20260906132017 25 98 0.0 0.0 0.00 0.00 0.00 88 1015.5
20260906131543 25 98 0.0 0.0 0.00 0.00 0.00 88 1015.4
20260906131017 25 98 0.0 0.0 0.00 0.00 0.00 89 1015.4
20260906130502 25 98 0.0 0.0 0.00 0.00 0.00 89 1015.3
20260906130040 24 162 0.0 0.0 0.00 0.00 0.00 90 1015.3
20260906125506 24 162 0.0 0.0 0.00 0.00 0.00 91 1015.3
20260906125001 24 162 0.0 0.0 0.00 0.00 0.00 91 1015.3
20260906124524 23 162 0.0 0.0 0.00 0.00 0.00 91 1015.2
20260906124007 23 162 0.0 0.0 0.00 0.00 0.00 91 1015.1
20260906123501 23 162 0.0 0.0 0.00 0.00 0.00 91 1015.1
20260906123023 23 162 0.0 0.0 0.00 0.00 0.00 90 1015.0
20260906122506 23 162 0.0 0.0 0.00 0.00 0.00 90 1014.9
20260906122002 23 162 0.0 0.0 0.00 0.00 0.00 90 1015.0
20260906121532 23 162 0.0 0.0 0.00 0.00 0.00 90 1015.0
20260906121005 23 162 0.0 0.0 0.00 0.00 0.00 90 1014.9
20260906120502 23 161 0.0 0.0 0.00 0.00 0.00 90 1014.9
20260906120023 23 161 0.0 0.0 0.00 0.00 0.00 89 1014.9
20260906115506 23 161 0.0 0.0 0.00 0.00 0.00 89 1014.9
20260906115001 23 161 0.0 0.0 0.00 0.00 0.00 89 1014.9
20260906114530 23 162 0.0 0.0 0.00 0.00 0.00 89 1014.8
20260906114005 23 162 0.0 0.0 0.00 0.00 0.00 89 1014.7
20260906113502 23 162 0.0 0.0 0.00 0.00 0.00 89 1014.5
20260906113025 23 162 0.0 0.0 0.00 0.00 0.00 89 1014.5
20260906112505 23 161 0.0 0.0 0.00 0.00 0.00 89 1014.5
20260906112002 23 162 0.0 0.0 0.00 0.00 0.00 89 1014.6
20260906111527 24 162 0.0 0.0 0.00 0.00 0.00 89 1014.6
20260906111006 24 161 0.0 0.0 0.00 0.00 0.00 89 1014.5
20260906110502 24 162 0.0 0.0 0.00 0.00 0.00 89 1014.4
20260906110024 24 162 0.0 0.0 0.00 0.00 0.00 89 1014.3
20260906105503 24 162 0.0 0.0 0.00 0.00 0.00 88 1014.2
20260906105004 24 162 0.0 0.0 0.00 0.00 0.00 88 1014.1
20260906104526 24 162 0.0 0.0 0.00 0.00 0.00 88 1014.1
20260906104006 24 162 0.0 3.2 0.00 0.00 0.00 88 1014.0
20260906103502 24 162 0.0 3.2 0.00 0.00 0.00 88 1014.0
20260906103025 24 162 1.6 3.2 0.00 0.00 0.00 88 1013.9
20260906102506 24 142 0.0 0.0 0.00 0.00 0.00 87 1013.9
20260906102002 24 142 0.0 0.0 0.00 0.00 0.00 87 1013.9
20260906101529 24 143 0.0 0.0 0.00 0.00 0.00 87 1014.0
20260906101007 24 142 0.0 0.0 0.00 0.00 0.00 87 1014.0
20260906100503 24 142 0.0 0.0 0.00 0.00 0.00 87 1013.9
20260906100031 24 142 0.0 0.0 0.00 0.00 0.00 87 1013.9
20260906095507 25 142 0.0 0.0 0.00 0.00 0.00 86 1014.0
20260906095003 25 142 0.0 0.0 0.00 0.00 0.00 85 1014.0
20260906094526 25 142 0.0 0.0 0.00 0.00 0.00 85 1014.0
20260906094009 25 142 0.0 0.0 0.00 0.00 0.00 85 1013.9
20260906093504 25 142 0.0 0.0 0.00 0.00 0.00 84 1013.9
20260906093027 25 143 0.0 0.0 0.00 0.00 0.00 84 1013.8
20260906092509 25 143 0.0 0.0 0.00 0.00 0.00 84 1013.8
20260906092006 25 143 0.0 0.0 0.00 0.00 0.00 83 1013.8
20260906091527 25 143 0.0 0.0 0.00 0.00 0.00 83 1013.7
20260906091004 25 143 0.0 0.0 0.00 0.00 0.00 83 1013.7
20260906090503 25 142 0.0 0.0 0.00 0.00 0.00 83 1013.7
20260906090026 25 143 0.0 0.0 0.00 0.00 0.00 82 1013.6
20260906085506 25 142 0.0 0.0 0.00 0.00 0.00 82 1013.7
20260906085003 25 142 0.0 0.0 0.00 0.00 0.00 81 1013.6
20260906084526 26 142 0.0 0.0 0.00 0.00 0.00 81 1013.6
20260906084007 26 142 0.0 0.0 0.00 0.00 0.00 81 1013.5
20260906083503 26 142 0.0 0.0 0.00 0.00 0.00 80 1013.4
20260906083025 26 142 0.0 3.2 0.00 0.00 0.00 79 1013.4
20260906082508 26 142 0.0 4.8 0.00 0.00 0.00 79 1013.4
20260906082003 26 144 1.6 6.4 0.00 0.00 0.00 79 1013.5
20260906081524 26 160 1.6 8.0 0.00 0.00 0.00 79 1013.5
20260906081006 26 159 1.6 8.0 0.00 0.00 0.00 79 1013.5
20260906080503 26 176 1.6 4.8 0.00 0.00 0.00 78 1013.5
20260906080034 26 191 1.6 4.8 0.00 0.00 0.00 78 1013.4
20260906075508 26 187 0.0 3.2 0.00 0.00 0.00 78 1013.4
20260906075004 26 187 0.0 0.0 0.00 0.00 0.00 78 1013.4
20260906074527 26 177 0.0 3.2 0.00 0.00 0.00 77 1013.3
20260906074007 26 177 0.0 3.2 0.00 0.00 0.00 77 1013.3
20260906073517 26 186 0.0 3.2 0.00 0.00 0.00 77 1013.4
20260906073029 26 181 0.0 3.2 0.00 0.00 0.00 77 1013.4
20260906072507 26 178 0.0 4.8 0.00 0.00 0.00 77 1013.5
20260906072016 26 178 1.6 4.8 0.00 0.00 0.00 77 1013.5
20260906071529 26 155 0.0 3.2 0.00 0.00 0.00 77 1013.4
20260906071009 27 155 0.0 3.2 0.00 0.00 0.00 77 1013.6
20260906070515 27 155 0.0 6.4 0.00 0.00 0.00 76 1013.7
20260906070027 27 155 0.0 9.7 0.00 0.00 0.00 75 1013.7
20260906065508 27 170 1.6 9.7 0.00 0.00 0.00 76 1013.8
20260906065018 27 199 3.2 8.0 0.00 0.00 0.00 76 1013.8
20260906064531 27 167 3.2 6.4 0.00 0.00 0.00 76 1013.9
20260906064008 27 162 0.0 0.0 0.00 0.00 0.00 75 1014.0
20260906063516 27 153 0.0 1.6 0.00 0.00 0.00 75 1013.9
20260906063031 27 153 0.0 6.4 0.00 0.00 0.00 74 1013.9
20260906062509 27 140 1.6 8.0 0.00 0.00 0.00 74 1013.9
20260906062019 27 155 3.2 6.4 0.00 0.00 0.00 74 1013.7
20260906061545 27 168 0.0 0.0 0.00 0.00 0.00 74 1013.6
20260906061015 27 195 0.0 3.2 0.00 0.00 0.00 73 1013.5
20260906060518 27 163 0.0 6.4 0.00 0.00 0.00 73 1013.6
20260906060026 28 157 0.0 8.0 0.00 0.00 0.00 73 1013.7
20260906055515 28 165 3.2 8.0 0.00 0.00 0.00 73 1013.7
20260906055018 28 190 3.2 8.0 0.00 0.00 0.00 72 1013.8
20260906054542 28 173 3.2 8.0 0.00 0.00 0.00 72 1013.8
20260906054009 28 166 3.2 6.4 0.00 0.00 0.00 72 1014.0
20260906053519 28 178 1.6 8.0 0.00 0.00 0.00 72 1013.8
20260906053030 28 192 3.2 8.0 0.00 0.00 0.00 72 1013.9
20260906052516 28 180 6.4 8.0 0.00 0.00 0.00 72 1013.8
20260906052016 28 198 3.2 6.4 0.00 0.00 0.00 73 1013.8
20260906051527 27 180 1.6 6.4 0.00 0.00 0.00 72 1013.8
20260906051009 27 163 0.0 0.0 0.00 0.00 0.00 72 1013.7
20260906050520 27 163 0.0 0.0 0.00 0.00 0.00 72 1013.8
20260906050035 28 155 0.0 3.2 0.00 0.00 0.00 71 1013.6
20260906045513 28 121 0.0 4.8 0.00 0.00 0.00 71 1013.7
20260906045018 28 147 1.6 4.8 0.00 0.00 0.00 70 1013.8
20260906044527 28 150 1.6 4.8 0.00 0.00 0.00 70 1013.9
20260906044020 28 136 1.6 4.8 0.00 0.00 0.00 69 1013.9
20260906043515 28 142 3.2 6.4 0.00 0.00 0.00 68 1013.9
20260906043032 28 138 1.6 9.7 0.00 0.00 0.00 68 1014.0
20260906042510 29 144 0.0 9.7 0.00 0.00 0.00 68 1013.9
20260906042017 29 160 3.2 11.3 0.00 0.00 0.00 68 1014.0
20260906041528 29 178 4.8 9.7 0.00 0.00 0.00 67 1013.9
20260906041018 29 184 3.2 9.7 0.00 0.00 0.00 67 1013.9
20260906040521 29 173 3.2 9.7 0.00 0.00 0.00 66 1013.9
20260906040029 29 177 3.2 8.0 0.00 0.00 0.00 66 1013.9
20260906035511 29 175 3.2 8.0 0.00 0.00 0.00 66 1013.8
20260906035003 29 180 1.6 8.0 0.00 0.00 0.00 66 1013.8
20260906034503 29 175 3.2 8.0 0.00 0.00 0.00 65 1013.8
20260906034017 29 179 3.2 9.7 0.00 0.00 0.00 65 1013.7
20260906033515 30 186 4.8 11.3 0.00 0.00 0.00 64 1013.6
20260906033039 30 186 4.8 11.3 0.00 0.00 0.00 64 1013.6
20260906032510 30 211 4.8 11.3 0.00 0.00 0.00 63 1013.7
20260906032004 30 173 4.8 14.5 0.00 0.00 0.00 63 1013.8
20260906031503 30 162 4.8 14.5 0.00 0.00 0.00 63 1013.8
20260906031011 30 178 4.8 14.5 0.00 0.00 0.00 63 1013.8
20260906030508 30 177 4.8 14.5 0.00 0.00 0.00 62 1013.8
20260906030003 30 163 8.0 12.9 0.00 0.00 0.00 62 1013.9
20260906025515 30 181 3.2 12.9 0.00 0.00 0.00 62 1013.9
20260906025006 30 160 4.8 12.9 0.00 0.00 0.00 62 1013.9
20260906024504 30 138 4.8 16.1 0.00 0.00 0.00 62 1013.8
20260906024014 30 132 4.8 16.1 0.00 0.00 0.00 61 1013.7
20260906023507 30 190 8.0 16.1 0.00 0.00 0.00 61 1013.6
20260906023003 30 180 4.8 11.3 0.00 0.00 0.00 61 1013.5
20260906022508 30 159 3.2 9.7 0.00 0.00 0.00 60 1013.3
20260906022003 30 162 3.2 14.5 0.00 0.00 0.00 60 1013.3
20260906021538 31 174 8.0 16.1 0.00 0.00 0.00 60 1013.1
20260906021018 31 157 6.4 16.1 0.00 0.00 0.00 60 1013.1
20260906020507 31 163 6.4 14.5 0.00 0.00 0.00 60 1012.9
20260906020004 31 167 4.8 17.7 0.00 0.00 0.00 59 1012.9
20260906015512 31 209 8.0 17.7 0.00 0.00 0.00 59 1013.0
20260906015007 31 147 9.7 17.7 0.00 0.00 0.00 58 1013.0
20260906014506 31 169 8.0 14.5 0.00 0.00 0.00 58 1012.9
20260906014018 31 150 6.4 14.5 0.00 0.00 0.00 58 1012.9
20260906013507 31 168 6.4 17.7 0.00 0.00 0.00 57 1012.8
20260906013004 31 153 9.7 17.7 0.00 0.00 0.00 57 1012.8
20260906012512 32 159 8.0 25.7 0.00 0.00 0.00 57 1012.8
20260906012016 32 153 12.9 25.7 0.00 0.00 0.00 57 1012.7
20260906011506 32 153 11.3 19.3 0.00 0.00 0.00 55 1012.7
20260906011011 33 135 11.3 19.3 0.00 0.00 0.00 53 1012.4
20260906010506 34 155 4.8 12.9 0.00 0.00 0.00 48 1012.3
20260906010004 34 188 3.2 9.7 0.00 0.00 0.00 46 1012.1
20260906005511 34 159 3.2 9.7 0.00 0.00 0.00 46 1012.1
20260906005008 34 153 4.8 8.0 0.00 0.00 0.00 46 1011.9
20260906004505 35 148 3.2 8.0 0.00 0.00 0.00 45 1011.9
20260906004012 35 153 3.2 8.0 0.00 0.00 0.00 45 1012.0
20260906003504 35 160 3.2 6.4 0.00 0.00 0.00 45 1011.9
20260906003030 35 150 3.2 11.3 0.00 0.00 0.00 45 1012.0
20260906002520 35 175 3.2 11.3 0.00 0.00 0.00 45 1012.0
20260906002007 35 159 3.2 11.3 0.00 0.00 0.00 45 1012.0
20260906001554 35 157 3.2 8.0 0.00 0.00 0.00 45 1011.9
20260906001011 35 183 3.2 9.7 0.00 0.00 0.00 44 1012.0
20260906000508 35 150 6.4 9.7 0.00 0.00 0.00 44 1011.9
20260906000031 35 160 3.2 9.7 0.00 0.00 0.00 44 1011.9
20260905235511 35 128 4.8 9.7 0.00 0.00 0.00 44 1011.9
20260905235007 35 175 3.2 9.7 0.00 0.00 0.00 43 1011.8
20260905234539 35 151 4.8 9.7 0.00 0.00 0.00 43 1011.8
20260905234019 35 194 3.2 6.4 0.00 0.00 0.00 43 1011.8
20260905233508 36 136 1.6 8.0 0.00 0.00 0.00 43 1011.8
20260905233035 36 77 1.6 8.0 0.00 0.00 0.00 43 1011.8
20260905232523 36 167 3.2 8.0 0.00 0.00 0.00 42 1011.7
20260905232016 36 161 4.8 11.3 0.00 0.00 0.00 42 1011.7
20260905231534 36 93 6.4 11.3 0.00 0.00 0.00 42 1011.8
20260905231016 36 202 1.6 12.9 0.00 0.00 0.00 41 1011.7
20260905230507 36 155 6.4 12.9 0.00 0.00 0.00 41 1011.8
20260905230034 36 30 1.6 11.3 0.00 0.00 0.00 42 1011.8
20260905225510 36 151 3.2 11.3 0.00 0.00 0.00 42 1011.8